Location: Biltmore Gardens
(41.6070°N, 83.4666°W)
Time: 07:59:24
(UTC+00:00)

Vanguard 3 - Pass Details

Date: 26 April 2021
Orbit: 507 x 3262 km, 33.4° (Epoch: 17 May)

Event Time Altitude Azimuth Distance (km) Brightness Sun altitude
Rises 02:36:12 0° 209° (SSW) 6,092 11.5 -21.6°
Reaches altitude 10° 02:42:29 10° 194° (SSW) 4,497 10.6 -22.4°
Enters shadow 02:45:12 14° 183° (S) 3,872 10.2 -22.8°
